Location: *
(42.3836°N, 9.2481°E)
Time: 13:55:18
(UTC+00:00)

Daily predictions for brighter satellites

Satellite Brightness Start Highest point End
(mag) Time Altitude Azimuth Time Altitude Azimuth Time Altitude Azimuth
Lacrosse 5 4.5 19:20:50 10° WNW 19:24:24 19° NNW 19:27:59 10° NNE
Cosmos 1980 Rocket 2.8 19:20:10 10° SW 19:25:44 63° WNW 19:31:19 10° NNE
Cosmos 371 Rocket 3.4 19:21:26 10° NNW 19:26:20 74° ENE 19:31:10 10° SSE
SJ-6B 3.9 19:26:08 10° S 19:29:43 44° W 19:33:18 10° NNW
ISS -3.0 19:26:51 10° SSW 19:29:50 31° SE 19:32:51 10° ENE
H-2A R/B 2.2 19:28:11 10° SSE 19:33:39 88° ENE 19:39:03 10° NNW
ERBS 3.3 19:32:13 10° WNW 19:35:21 40° SW 19:38:27 10° SSE
Aureole 1 Rocket 3.6 19:30:51 10° S 19:35:23 59° ESE 19:41:28 10° NNE
Cosmos 1076 Rocket 3.9 19:31:39 10° SSW 19:36:00 71° W 19:40:23 10° N
Cosmos 332 Rocket 3.8 19:34:14 10° NNW 19:39:04 83° ENE 19:43:52 10° SSE
CZ-2C R/B 3.6 19:41:11 10° NE 19:45:30 26° E 19:49:46 10° SSE
Cosmos 1869 3.2 19:43:40 10° N 19:47:38 76° E 19:51:34 10° SSE
Cosmos 1340 Rocket 2.8 19:44:01 10° N 19:48:06 73° E 19:52:10 10° SSE
Cosmos 304 Rocket 4.1 19:45:15 10° N 19:49:59 52° ENE 19:54:20 12° SE
Cosmos 2322 Rocket 2.3 19:45:46 10° S 19:51:20 59° ESE 19:56:57 10° NNE
Terra 3.9 19:50:05 10° E 19:52:08 13° ENE 19:54:12 10° NE
Cosmos 44 4.4 19:47:49 10° SW 19:52:58 53° NW 19:57:56 10° NNE
Cosmos 2151 3.1 19:50:00 10° S 19:54:10 57° E 19:58:24 10° NNE
DMSP B5D2-2 4.1 19:50:41 10° NNE 19:55:51 61° E 20:01:00 10° S
Iridium 4 Rocket 4.1 19:50:07 10° N 19:55:55 53° E 20:01:30 10° SSE
Cosmos 2251 Rocket 3.6 19:51:15 10° SSW 19:56:29 85° WNW 20:01:45 10° NNE
Cosmos 44 Rocket 3.5 19:51:43 10° SSW 19:56:43 53° ESE 20:01:38 10° NE
SL-16 R/B 2.2 19:51:36 10° SSW 19:57:14 75° ESE 20:02:55 10° NNE
Gbstr 26 Del rocket 3.6 19:56:53 10° WSW 20:00:58 52° NNW 20:04:39 10° NE
ERS-1 Rocket 4.0 19:57:30 13° ESE 20:01:17 31° ENE 20:05:40 10° N
Cosmos 1825 4.0 20:00:42 14° ESE 20:02:01 16° E 20:04:21 10° NE
Okean 3 Rocket 3.9 19:58:09 10° SSW 20:02:40 73° W 20:07:14 10° N
ADEOS Rocket 2.7 19:57:15 10° NNE 20:02:53 82° ESE 20:08:21 10° SSW
ARGOS 4.0 20:00:23 10° S 20:05:37 51° W 20:10:54 10° NNW
Cosmos 1743 Rocket 4.4 20:05:21 15° SE 20:08:16 31° E 20:12:06 10° NNE
Cosmos 1464 Rocket 4.0 20:06:17 10° S 20:12:33 78° E 20:18:47 10° N
Cosmos 1844 Rocket 4.0 20:09:29 10° N 20:14:18 27° NE 20:18:14 14° ESE
EO 1 Del DPAF 3.6 20:12:09 10° NNE 20:15:48 44° E 20:18:32 16° SSE
MTI 4.3 20:13:08 10° N 20:16:16 60° WNW 20:19:23 10° SSW
Tiangong 2 1.1 20:14:26 10° W 20:17:32 64° SSW 20:19:09 25° ESE
USA 215 4.2 20:11:31 10° NE 20:17:48 51° NNW 20:24:04 10° WSW
Cosmos 1515 Rocket 3.9 20:14:22 10° N 20:18:34 46° ENE 20:21:12 21° SE
Cosmos 2263 Rocket 2.5 20:13:32 10° NNW 20:19:12 67° WSW 20:24:10 13° S
In-Cosmos 22 Rocket 4.2 20:14:22 10° S 20:19:45 85° W 20:25:20 10° N
Cosmos 1766 Rocket 3.9 20:15:42 10° SSW 20:19:59 64° W 20:24:18 10° N
Cosmos 1992 Rocket 4.0 20:16:23 10° NNW 20:21:40 86° WSW 20:25:47 17° SSE
SPOT 1/Viking Rocket 4.0 20:20:29 19° SE 20:23:57 48° ENE 20:28:56 10° N
Cosmos 1408 Rocket 3.6 20:22:38 10° S 20:26:56 80° W 20:31:16 10° N
USA 245 2.0 20:26:51 47° ESE 20:27:11 55° ENE 20:29:21 10° N
Spot 2 Rocket 3.9 20:25:41 11° S 20:30:35 60° WSW 20:35:39 10° NNW
Lacrosse 5 rocket 4.4 20:29:01 10° NNW 20:31:09 13° N 20:33:16 10° NNE
Cosmos 2237 4.3 20:26:21 10° S 20:31:51 52° ESE 20:37:21 10° NE
Cosmos 1242 Rocket 3.9 20:28:26 10° SSW 20:31:53 40° WNW 20:35:24 10° N
Cosmos 1892 3.0 20:29:34 10° SSW 20:33:24 67° W 20:37:14 10° N
MetOp-B 4.4 20:30:51 13° S 20:35:33 67° WSW 20:40:55 10° NNW
SPOT 5 3.3 20:35:44 24° SE 20:38:35 50° ENE 20:43:17 10° N
CZ-2C R/B 4.0 20:34:02 10° S 20:39:16 46° W 20:44:15 10° NNW
Cosmos 2228 Rocket 3.2 20:39:35 10° N 20:44:07 63° E 20:46:20 29° SSE
Cosmos 1356 Rocket 3.8 20:39:57 10° N 20:44:08 50° ENE 20:45:51 31° SE
SL-8 R/B 4.4 20:39:39 10° WNW 20:44:19 50° NNE 20:48:09 15° E
Cosmos 921 Rocket 3.3 20:41:36 10° NNW 20:45:48 62° WSW 20:48:18 24° S
Resurs 01 Rocket 3.9 20:44:15 10° SW 20:47:36 21° W 20:50:58 10° NW
SL-4 R/B 2.4 20:42:57 10° SW 20:47:41 56° SE 20:52:23 10° ENE
COSMOS 2428 3.6 20:48:54 26° SE 20:50:20 29° ESE 20:55:12 10° NE
DELTA 2 R/B (1) 3.7 20:45:18 10° WSW 20:50:43 52° SSE 20:55:04 16° E
CARTOSAT-1 3.7 20:49:10 32° SE 20:50:56 57° ENE 20:55:10 10° N
USA 267 3.3 20:47:06 24° SE 20:51:19 71° SW 20:57:53 10° NW
Mayak 1.1 20:50:20 10° ENE 20:51:05 11° E 20:51:05 11° E
Cosmos 1844 4.4 20:48:57 10° NNW 20:54:18 42° ENE 20:57:03 25° ESE
Cosmos 1151 Rocket 3.9 20:53:39 10° NNW 20:57:51 46° W 21:00:47 18° SSW
ATLAS CENTAUR R/B 4.2 20:57:53 10° N 20:59:41 12° NNE 21:01:27 10° NE
NOSS 3-1 (C) 3.3 20:55:05 13° SSW 20:59:56 57° ESE 21:06:00 10° NE
Landsat 7 3.8 20:57:35 28° S 21:00:05 79° WSW 21:04:53 10° NNW
ASTEX 1 4.1 21:00:07 10° NNE 21:04:46 37° E 21:05:57 33° ESE
Cosmos 2360 Rocket 2.4 20:59:11 10° SSW 21:04:49 74° WNW 21:10:28 10° NNE
ISS -2.2 21:03:20 10° W 21:06:28 38° NNW 21:09:38 10° NE
Cosmos 676 Rocket 4.3 21:05:24 35° SSE 21:07:06 48° ESE 21:12:07 10° NNE
Cosmos 2237 Rocket 4.0 21:07:53 14° E 21:07:53 14° E 21:10:12 10° ENE
Lacrosse 5 4.5 21:06:03 10° NNW 21:09:09 16° N 21:12:16 10° NE
Cosmos 1408 3.6 21:11:39 21° SW 21:13:45 45° W 21:17:21 10° N
Sich 1 3.5 21:14:33 39° ESE 21:14:54 40° E 21:18:55 10° NNE
Cosmos 2084 Rocket 4.3 21:14:00 10° NNW 21:18:11 42° NE 21:19:28 33° E
Cosmos 1500 Rocket 4.3 21:15:38 19° SSW 21:18:41 50° WNW 21:23:04 10° N
Cosmos 1606 2.5 21:14:55 10° N 21:18:43 84° E 21:19:13 65° SSE
Cosmos 1627 Rocket 4.4 21:13:27 10° N 21:19:38 76° E 21:22:23 35° SSE
Cosmos 292 Rocket 3.7 21:15:32 10° NNW 21:20:24 78° ENE 21:21:48 46° SSE
BREEZE-M DEB (TANK) 4.4 21:16:52 10° WSW 21:21:23 88° NNW 21:39:52 10° ENE
Cosmos 1954 Rocket 4.0 21:20:00 40° SSE 21:21:40 60° ESE 21:26:51 10° NNE
MOS 1 Rocket 3.2 21:19:23 10° NNE 21:23:52 69° ESE 21:25:05 47° SSE
CZ-2C R/B 3.8 21:21:04 10° N 21:25:54 39° WNW 21:30:40 10° SW
Cosmos 1933 4.0 21:23:02 10° NNW 21:26:56 48° W 21:28:09 35° SW
Terra 1.8 21:27:45 45° S 21:29:12 79° WSW 21:34:00 10° NNW
Cosmos 1140 Rocket 3.4 21:27:46 31° SSW 21:30:20 88° WNW 21:35:34 10° NNE
Cosmos 407 Rocket 4.1 21:27:19 12° SW 21:32:11 56° WNW 21:37:27 10° NNE
Cosmos 2279 Rocket 4.0 21:31:09 39° SSE 21:33:20 62° E 21:39:27 10° NNE
Cosmos 2219 Rocket 2.1 21:33:10 41° S 21:35:03 65° ESE 21:40:41 10° NNE
USA 81 4.4 21:31:38 10° NNW 21:36:51 61° W 21:39:02 34° SSW
Cosmos 2333 4.2 21:33:29 23° SSW 21:37:10 84° WNW 21:42:53 10° NNE
Cosmos 1825 3.7 21:35:29 21° WSW 21:37:15 32° WNW 21:40:40 10° NNW
USA 229 DEB 3.9 21:31:03 10° SW 21:37:36 69° NW 21:44:28 10° NNE
USA 229 3.9 21:31:09 10° SW 21:37:42 70° NW 21:44:36 10° NNE
Meteor 2-3 Rocket 4.0 21:34:30 25° SSW 21:37:56 68° WNW 21:43:45 10° N
ERS-1 Rocket 4.3 21:37:30 21° SW 21:39:59 32° W 21:44:31 10° NNW
NOSS 3-1 (A) 3.1 21:38:17 34° SSW 21:40:48 73° ESE 21:47:03 10° NE
Cosmos 2333 Rocket 2.1 21:39:40 41° S 21:41:39 72° ESE 21:47:20 10° NNE
BREEZE-M DEB (TANK) 4.1 21:39:33 10° NW 21:41:49 27° NNE 21:46:31 10° ENE
BREEZE-M DEB (TANK) 4.5 21:41:18 10° NW 21:43:01 19° N 21:44:26 13° NE
Meteor 1-26 Rocket 4.5 21:38:19 10° NNW 21:43:51 60° W 21:45:56 36° SSW
Cosmos 2278 Rocket 3.2 21:39:26 10° N 21:44:40 36° ENE 21:46:37 28° E
Cosmos 1428 Rocket 4.5 21:43:07 10° N 21:49:23 81° W 21:51:42 42° S
Cosmos 1707 Rocket 3.4 21:47:23 10° N 21:51:52 88° WSW 21:52:17 73° S
NOSS 2-3 (E) 4.2 21:53:10 43° E 21:53:10 43° E 21:57:09 10° NE
Cosmos 1607 3.8 21:46:32 10° NW 21:52:43 87° WSW 21:54:31 49° SSE
Helios 1A 3.3 21:54:50 52° ENE 21:54:52 52° ENE 21:58:56 10° N
NOSS 2-3 (D) 4.3 21:56:04 41° E 21:56:04 41° E 21:59:55 10° NE
Cosmos 1844 Rocket 3.2 21:52:58 10° NW 21:58:25 48° WSW 21:59:54 39° SSW
SeaSat 1 3.6 21:55:25 10° NE 21:58:44 28° E 21:58:44 28° E
Nimbus 7 Rocket 4.4 21:58:37 10° NNE 22:04:33 67° ESE 22:05:50 53° SSE
NOSS 0 Rocket 3.9 22:06:55 53° SSE 22:08:02 63° ESE 22:14:07 10° NNE
Lacrosse 5 rocket 3.8 22:08:18 10° NNW 22:11:54 22° NNE 22:15:03 12° ENE
Cosmos 1655 Rocket 4.0 22:15:48 10° N 22:22:02 74° W 22:23:37 52° SSW
Cosmos 2242 Rocket 3.9 22:18:11 10° N 22:22:30 57° ENE 22:22:30 57° ENE
YAOGAN 11 4.3 22:23:11 58° ENE 22:23:11 58° ENE 22:27:12 10° N
Cosmos 1818 3.7 22:18:53 10° NW 22:24:14 57° WSW 22:24:37 55° SW
Cosmos 1782 4.1 22:22:18 10° NNW 22:25:49 32° W 22:25:49 32° W
SL-8 R/B 4.1 22:22:15 10° WNW 22:26:05 49° WSW 22:26:05 49° WSW
SL-4 R/B 3.6 22:23:01 10° W 22:27:37 42° NNW 22:32:06 10° NE
ERS-2 4.2 22:28:07 20° NE 22:28:07 20° NE 22:30:23 10° NNE
Mayak -1.0 22:23:28 10° N 22:27:39 63° WNW 22:27:39 63° WNW
Meteor 1-10 Rocket 4.3 22:23:34 10° NNW 22:29:11 68° W 22:30:09 57° SSW
Cosmos 1862 3.9 22:33:05 55° NW 22:33:05 55° NW 22:36:35 10° N
Cosmos 1812 3.7 22:28:54 10° N 22:31:48 42° NNE 22:31:48 42° NNE
ALOS 2 3.0 22:33:16 53° ENE 22:33:16 53° ENE 22:37:19 10° N
SL-16 R/B 3.3 22:34:08 29° E 22:34:08 29° E 22:38:20 10° NE
Cosmos 1933 Rocket 3.7 22:34:02 66° NE 22:34:02 66° NE 22:37:56 10° N
Cosmos 1633 Rocket 3.9 22:33:25 41° W 22:33:43 41° WNW 22:37:52 10° N
COSMOS 2428 3.7 22:30:50 20° WSW 22:34:23 42° WNW 22:39:50 10° NNE
Cosmos 1400 Rocket 3.5 22:31:32 10° N 22:34:59 51° NE 22:34:59 51° NE
Cosmos 1570 Rocket 4.0 22:31:19 10° NNW 22:36:32 67° ENE 22:36:57 64° E
DELTA 2 R/B (1) 3.8 22:31:22 10° W 22:35:50 54° SW 22:35:50 54° SW
NOSS 2-3 (C) 3.8 22:37:14 65° W 22:37:39 69° NW 22:42:47 10° NNE
Lacrosse 4 Rocket 3.3 22:41:23 22° ENE 22:41:23 22° ENE 22:43:26 10° NE
ATLAS CENTAUR R/B 2.0 22:35:07 10° NNW 22:39:44 57° NE 22:39:44 57° NE
Helios 1B rocket 2.9 22:36:20 10° NNE 22:39:43 57° NNE 22:39:43 57° NNE
Okean 1-7 4.1 22:37:38 10° N 22:41:09 35° ENE 22:41:09 35° ENE
Cosmos 1980 3.6 22:42:14 63° SW 22:43:10 83° WNW 22:48:54 10° NNE
ISS -0.7 22:41:32 10° NW 22:43:50 17° N 22:46:08 10° NE
GP-B 3.2 22:41:10 10° N 22:45:14 73° NNW 22:45:14 73° NNW
Cosmos 1867 3.9 22:44:53 44° WSW 22:46:29 63° NW 22:51:58 10° NNE
Cosmos 1862 Rocket 4.2 22:44:42 10° NNW 22:48:29 48° WNW 22:48:29 48° WNW
Cosmos 2237 Rocket 2.2 22:49:41 63° SW 22:50:34 78° WNW 22:56:14 10° NNE
Cosmos 1470 Rocket 4.1 22:51:22 50° WNW 22:51:22 50° WNW 22:55:29 10° N
COSMOS 2455 2.8 22:51:59 61° ESE 22:52:09 61° ESE 22:58:06 10° NE
Lacrosse 5 3.4 22:48:56 10° NNW 22:53:31 33° NNE 22:56:25 19° E
Cosmos 2285 Rocket 4.0 22:53:55 58° SE 22:54:30 61° ESE 23:00:42 10° NNE
Cosmos 1814 Rocket 4.2 22:49:47 10° NNW 22:54:51 55° ENE 22:55:10 54° E
Cosmos 1869 Rocket 4.4 22:58:41 41° ENE 22:58:41 41° ENE 23:02:05 10° NNE
Cosmos 1633 4.4 22:59:07 27° NW 22:59:07 27° NW 23:01:31 10° NNW
Meteor 2-13 Rocket 4.5 22:53:13 10° NNW 22:59:16 67° W 23:00:11 59° SW
Cosmos 724 4.1 22:58:54 10° NNW 23:04:58 87° WSW 23:05:33 74° SSE
Cosmos 2266 Rocket 4.4 23:03:01 10° NNW 23:09:07 50° W 23:10:16 45° WSW
Meteor 1-27 Rocket 4.4 23:13:12 10° NNW 23:18:44 44° W 23:19:24 42° WSW
Cosmos 1553 Rocket 4.1 23:18:07 53° ESE 23:18:46 56° E 23:24:43 10° NNE
Meteor 1-25 Rocket 4.1 23:18:37 69° ESE 23:18:48 70° E 23:24:21 10° NNE
Cosmos 2219 Rocket 4.3 23:15:12 10° W 23:19:30 22° NW 23:23:48 10° N
Meteor 2-19 Rocket 4.5 23:13:22 10° N 23:19:31 68° E 23:20:28 59° SE
Cosmos 2297 3.7 23:16:54 10° NNW 23:22:34 70° ENE 23:23:14 63° ESE
S3M 4.4 23:22:03 45° ESE 23:23:01 49° E 23:29:09 10° NNE
Cosmos 540 Rocket 3.4 23:17:57 10° NNW 23:23:05 73° ENE 23:23:07 73° ENE
Cosmos 2333 Rocket 4.4 23:22:23 10° W 23:26:30 20° NW 23:30:38 10° N
Meteor 1-20 Rocket 4.1 23:26:19 75° SSE 23:26:44 81° E 23:32:35 10° NNE
Cosmos 1486 Rocket 4.3 23:28:14 56° E 23:28:14 56° E 23:33:10 10° NNE
Cosmos 2278 Rocket 3.1 23:23:36 10° NW 23:28:27 34° W 23:28:27 34° W
Cosmos 1943 Rocket 4.0 23:26:11 10° N 23:30:42 25° NE 23:33:54 15° E
Nadezhda 2 Rocket 4.4 23:24:55 10° NNW 23:31:06 69° W 23:31:52 63° SW
ATLAS 5 CENTAUR R/B 3.6 23:25:49 10° NNW 23:31:10 38° NE 23:35:45 16° ESE
Okean 1 4.3 23:32:03 10° N 23:35:07 46° NNE 23:35:07 46° NNE
SeaSat 1 3.5 23:32:44 10° NNE 23:37:18 38° NW 23:38:30 33° W
Cosmos 1733 Rocket 4.2 23:38:02 36° ENE 23:38:02 36° ENE 23:41:29 10° NNE
Cosmos 841 Rocket 3.7 23:35:05 10° NNW 23:39:43 57° W 23:39:43 57° W
BREEZE-M DEB (TANK) 4.3 23:31:12 10° W 23:42:37 63° N 23:46:26 10° E
Resurs 1-4 Rocket 4.3 23:42:21 10° ENE 23:44:37 13° E 23:45:39 12° E
CZ-4 R/B 4.4 23:41:37 10° N 23:46:07 48° WNW 23:46:10 48° WNW
Cosmos 968 Rocket 4.1 23:51:12 44° E 23:51:12 44° E 23:55:53 10° NNE
Lacrosse 5 rocket 2.1 23:47:09 10° NW 23:50:37 51° NW 23:50:37 51° NW
Cosmos 1745 Rocket 3.9 23:46:59 10° N 23:53:19 78° E 23:54:26 62° SSE
